Arlington Heights Weather Forecast: Mixed Sun and Clouds, High 62; Clear Tonight, Low 39

 SUPPORT UKRAINE/DONATE NOW 

TODAY SUNRISE: 7:05 AM SUNSET: 6:55 PM

Chicagoland weather radar shows light precipitation in central Illinois and Indiana at 2:44 PM.

Satellite images shows a band of clouds over most of northern Illinois with some clear areas far north and north central. Southern two-thirds of Illinois is cloudy.

 NWS POINT FORECAST … 

This Afternoon
Mostly sunny, with a high near 63. South southwest wind around 5 mph.


Tonight

Mostly clear, with a low around 39. South wind 5 to 10 mph becoming northwest after midnight.


Saturday

Sunny, with a high near 54. North northwest wind around 10 mph, with gusts as high as 15 mph.


Saturday Night

Mostly clear, with a low around 30. North northwest wind around 5 mph becoming east northeast after midnight.


Sunday

Sunny, with a high near 55. Southeast wind around 5 mph becoming south southwest in the afternoon. Winds could gust as high as 10 mph.


Sunday Night

Mostly clear, with a low around 42.


Monday

Mostly sunny, with a high near 62.


Monday Night

Mostly cloudy, with a low around 33.


Tuesday

Mostly sunny, with a high near 46.


Tuesday Night

Partly cloudy, with a low around 31.


Wednesday

Mostly sunny, with a high near 50.


Wednesday Night

Mostly cloudy, with a low around 34.


Thursday

A slight chance of rain and snow. Partly sunny, with a high near 48.

 AIRPORT WEATHER OBSERVATIONS … 

Location Time
(cdt)
Sky/Weather Temp.
(ºF)
Dewpt.
(ºF)
Humidity
(%)
Wind
(mph)
Pressure
(in)
Chicago/O’Hare 14:51 Mostly Cloudy 65 32 29 S 10 30.06
Chicago Midway Airport 14:53 Overcast 65 33 31 S 8 30.08
Chicago Executive Airport 14:52 Fair 65 32 29 Vrbl 7 30.08
Chicago / West Chicago, Dupage Airport 14:52 Fair 62 38 41 S 7 30.06
Aurora Municipal Airport 14:52 Fair 62 42 48 S 7 30.07
Gary Chicago International 14:45 Mostly Cloudy 63 27 25 SE 8 30.10
Kenosha Regional Airport 14:53 Fair 63 38 40 SW 12 30.05
Chicago / Waukegan, Waukegan Regional Airport 14:55 Fair 54 36 51 SE 6 30.06
Lansing Municipal Airport 14:55 Fair 59 37 44 S 6 30.09
Click on location name for the weather during the past two days at that site.

 CHICAGO EXECUTIVE AIRPORT … 

D
a
t
e
Time
(cdt)
Wind
(mph)
Vis.
(mi.)
Weather Sky Cond. Temperature (ºF) Relative
Humidity
Wind
Chill
(°F)
Heat
Index
(°F)
Pressure Precipitation (in.)
Air Dwpt 6 hour altimeter
(in)
sea level
(mb)
1 hr 3 hr 6 hr
Max. Min.
13 14:52 Vrbl 7 10.00 Fair CLR 65 32 29% NA NA 30.08 1018.7
13 13:52 SW 5 10.00 Fair CLR 62 31 31% NA NA 30.11 1019.7
13 12:52 W 5 10.00 Fair CLR 60 31 61 36 33% NA NA 30.14 1020.8
13 11:52 SW 6 10.00 Fair CLR 58 31 36% NA NA 30.16 1021.6
13 10:52 Vrbl 5 10.00 Fair CLR 54 30 40% NA NA 30.19 1022.6
13 09:52 S 7 10.00 Fair CLR 50 30 46% 47 NA 30.21 1023.2
13 08:52 S 9 10.00 Fair CLR 44 30 58% 39 NA 30.21 1023.6
13 07:52 Calm 9.00 Fair CLR 37 30 76% NA NA 30.23 1024.2
13 06:52 Calm 10.00 Fair CLR 36 29 39 33 76% NA NA 30.24 1024.5
13 05:52 Calm 10.00 Fair CLR 36 29 76% NA NA 30.24 1024.4
13 04:52 Calm 10.00 Fair CLR 34 28 79% NA NA 30.26 1024.9
13 03:52 Calm 10.00 Fair CLR 34 28 79% NA NA 30.28 1025.6
13 02:52 Calm 10.00 Fair CLR 36 29 76% NA NA 30.30 1026.4
13 01:52 Calm 10.00 Fair CLR 38 29 70% NA NA 30.32 1027.1
13 00:52 SE 3 10.00 Fair CLR 39 29 48 36 67% NA NA 30.33 1027.4

 YESTERDAY’S OBSERVATIONS … 

12 23:52 SE 5 10.00 Fair CLR 38 29 70% 34 NA 30.35 1028.0
12 22:52 SE 6 10.00 Fair CLR 40 29 65% 36 NA 30.36 1028.5
12 21:52 Calm 10.00 Fair CLR 38 27 65% NA NA 30.37 1029.0
12 20:52 SE 5 10.00 Fair CLR 39 27 62% 35 NA 30.38 1029.3
12 19:52 E 7 10.00 Fair CLR 45 27 49% 41 NA 30.39 1029.6
12 18:52 E 8 10.00 Fair CLR 48 28 55 48 46% 44 NA 30.39 1029.6
12 17:52 E 8 10.00 Fair CLR 51 29 43% NA NA 30.39 1029.7
12 16:52 SE 13 10.00 Fair CLR 52 29 41% NA NA 30.42 1030.6
12 15:52 E 9 10.00 Fair CLR 52 29 41% NA NA 30.43 1031.0
12 14:52 E 10 10.00 Fair CLR 52 28 40% NA NA 30.45 1031.5
12 13:52 E 8 10.00 Fair CLR 53 28 38% NA NA 30.47 1032.3
12 12:52 SE 15 10.00 Fair CLR 53 28 54 29 38% NA NA 30.50 1033.2
12 11:52 S 15 10.00 Fair CLR 51 28 41% NA NA 30.51 1033.7
12 10:52 SE 13 10.00 Fair CLR 47 28 48% 41 NA 30.52 1033.9
12 09:52 SE 9 10.00 Fair CLR 43 28 56% 38 NA 30.51 1033.7
12 08:52 SE 7 10.00 Fair CLR 38 27 65% 33 NA 30.50 1033.4
12 07:52 Calm 10.00 Fair CLR 32 27 82% NA NA 30.49 1033.1
12 06:52 Calm 10.00 Fair CLR 29 24 32 24 82% NA NA 30.49 1033.0
12 05:52 Calm 10.00 Fair CLR 27 23 85% NA NA 30.49 1033.1
12 04:52 N 3 10.00 Fair CLR 28 23 81% NA NA 30.48 1032.8
12 03:52 Calm 10.00 Fair CLR 27 23 85% NA NA 30.46 1032.0
12 02:52 Calm 10.00 Fair CLR 30 24 79% NA NA 30.46 1032.0
12 01:52 Calm 10.00 Fair CLR 30 24 79% NA NA 30.46 1031.9
12 00:52 Calm 10.00 Fair CLR 29 23 46 28 78% NA NA 30.46 1031.8

 MORE HELPFUL LINKS …  

LIVE RADAR | STORM TRACKS | UNISYS US IR SAT | UNISYS Midwest IR SAT | UNISYS More IR SAT

WunderMap® with Temperature/Wind Data || Google: Arlington Heights Temps | NE Illinois Temps

Full Screen Motion Weather Radar (Wunderground.com)

Midwest Cloud Cover with Arlington Heights Weather Forecast

ChicagoWeatherStation.com I O’Hare Normal Temps/Precip I O’Hare Record Temps, Precip, Snow

SUNLIGHT DATA FOR SECURITY, TRAFFIC SAFETY, AND SPORTS
SunCalc.net data with solar azimuth and trajectory, times for dawn, sunrise, solar noon, sunset, dusk …


Become a fan of The Cardinal weather page. Submit your pictures or just stay up-to-date on weather topics — go direct to the Arlington Cardinal Weather photos. For a list of all of The Cardinal Facebook fan pages, go to Arlingtoncardinal.com/about/facebook …

Arlingtoncardinal.com is an Amazon Associate website, which means that a small percentage of your purchases gets paid to Arlingtoncardinal.com at no extra cost to you. When you use the search boxes above, any Amazon banner ad, or any product associated with an Amazon banner on this website, you help pay expenses related to maintaining Arlingtoncardinal.com and creating new services and ideas for a resourceful website. See more info at Arlingtoncardinal.com/AdDisclosure